Location: Arrodets-la-Barthe
(43.0306°N, 0.2829°E)
Time: 08:40:22
(UTC+00:00)

CUBEBUG 2 - Pass Details

Date: 09 April 2023
Orbit: 577 x 685 km, 97.8° (Epoch: 03 June)

Event Time Altitude Azimuth Distance (km) Brightness Sun altitude
Rises 02:56:54 0° 7° (N) 3,040 ? -25.6°
Reaches altitude 10° 02:59:13 10° 3° (N) 2,108 ? -25.3°
Enters shadow 03:02:59 47° 319° (NW) 882 ? -24.8°
